Tracking 22130 objects as of 21-Jan-2021
HD Live streaming from Space Station
objects crossing your sky now

ANIK A2 (TELESAT 2)

Track ANIK A2 (TELESAT 2) now!
ANIK A2 (TELESAT 2) is classified as:


NORAD ID: 6437
Int'l Code: 1973-023A
Perigee: 35,866.7 km
Apogee: 35,983.9 km
Inclination: 11.4 °
Period: 1,442.8 minutes
Semi major axis: 42296 km
RCS: 3.1458 m2 (large)
Launch date: April 20, 1973
Source: Canada (CA)
Launch site: AIR FORCE EASTERN TEST RANGE (AFETR)
aabbcc
Your satellite tracking list
Your tracking list is empty




NASA's NSSDC Master Catalog

Two Line Element Set (TLE):
1 06437U 73023A   21020.67896725 -.00000311  00000-0  00000-0 0  9996
2 06437  11.3610 315.0684 0013860  23.6729 167.1675  0.99804389 27459
Source of the keplerian elements: AFSPC